Location: Unspecified
(0.0000°N, 0.0000°E)
Time: 18:13:58
(UTC+00:00)

COSMOS 2251 DEB - Pass Details

Date: 15 February 2026
Orbit: 744 x 1394 km, 73.9° (Epoch: 2 March)

Event Time Altitude Azimuth Distance (km) Brightness Sun altitude
Exits shadow 03:19:06 26° 52° (NE) 2,192 ? -42.4°
Maximum altitude 03:21:21 30° 80° (E) 2,073 ? -41.9°
Drops below altitude 10° 03:28:12 10° 138° (SE) 3,386 ? -40.3°
Sets 03:31:34 0° 147° (SSE) 4,412 ? -39.5°
